Theta_e
294 300 303 305 308 309 303 303 294 296 303 309 315 316 320 324 330 326 328 329 328 327 328 329 331 335 339 341 342 344 344 344 345 347 349 352 352 353 352 350 350 349 349 340
294 302 303 304 307 310 310 311 308 308 303 315 318 322 323 323 325 335 338 338 335 335 331 329 330 332 336 338 342 345 344 344 347 349 349 350 354 354 353 350 347 347 340 337
291 298 299 297 304 308 309 311 310 304 311 316 316 318 320 324 325 327 336 343 345 345 346 339 334 332 331 334 339 344 345 346 347 349 349 351 353 354 353 350 345 341 336 336
292 292 288 297 311 312 310 313 313 313 314 318 319 320 322 326 327 327 332 343 347 349 350 352 353 349 340 334 336 342 344 345 346 348 349 352 353 353 353 352 344 341 335 335
293 289 295 302 307 307 304 306 314 312 316 320 322 323 321 325 326 326 329 332 343 352 351 351 351 353 349 347 343 339 341 343 346 348 349 351 351 353 354 353 348 341 336 336
292 290 290 298 311 315 313 300 315 315 315 318 320 313 317 325 327 326 327 328 330 340 352 351 350 351 350 346 348 348 348 345 347 350 350 351 352 353 355 351 342 338 336 338
294 293 297 306 312 313 298 299 313 317 317 315 315 320 325 327 329 329 328 328 331 340 349 348 350 351 346 345 344 343 344 346 347 349 350 350 348 349 343 336 336 335 335 336
294 292 293 313 311 303 305 311 316 317 318 318 319 321 324 326 327 331 329 329 331 335 343 348 348 349 345 345 346 344 344 343 342 342 342 340 337 337 337 336 335 333 333 333
298 298 305 311 310 313 315 313 314 316 318 320 318 318 320 322 325 326 328 327 326 328 326 335 346 347 345 346 346 344 343 341 340 340 340 338 337 335 335 336 334 333 333 332
302 303 308 311 313 315 318 318 319 320 319 319 319 320 319 321 322 323 326 327 332 327 326 326 342 346 348 348 343 342 342 340 340 340 338 338 339 338 335 334 333 333 333 331
301 305 307 311 313 315 318 321 321 322 322 321 321 320 320 320 321 322 324 328 330 330 328 327 336 343 345 348 342 339 339 340 340 339 339 334 324 328 337 336 332 333 332 332
301 306 308 310 315 321 320 320 320 321 320 322 322 320 321 320 321 321 321 325 327 329 330 330 339 343 344 347 343 340 338 338 337 335 334 332 330 326 309 311 311 313 313 324
307 312 312 315 317 320 320 320 322 322 323 322 323 323 322 320 319 316 317 319 324 328 332 333 341 343 343 344 342 340 338 336 335 331 332 330 328 330 329 320 305 306 304 306
312 313 311 313 313 316 319 322 323 324 324 325 327 327 324 321 318 318 319 322 334 341 342 342 342 341 343 344 341 340 339 321 336 336 334 331 331 330 330 329 330 327 305 307
311 314 313 314 314 323 324 325 325 326 328 329 328 328 326 322 321 319 319 325 337 342 342 341 340 340 341 343 342 341 339 338 338 337 335 331 332 330 331 329 329 326 313 306
312 314 314 312 313 321 324 323 324 324 326 327 323 322 324 325 324 323 325 329 335 338 340 339 340 342 341 342 341 340 340 332 332 337 335 334 332 332 330 330 329 328 322 317
312 310 313 316 319 320 321 323 323 323 328 327 324 322 321 325 326 324 324 328 332 335 336 332 332 330 329 331 340 341 341 339 330 334 334 334 333 331 331 329 328 327 326 317
314 316 319 320 318 318 319 318 318 319 322 328 324 322 318 316 316 321 327 327 325 326 333 335 331 330 328 332 336 338 338 335 334 334 333 333 333 334 331 330 328 326 323 317
319 319 320 320 319 317 315 315 315 317 320 326 323 322 322 320 319 322 325 329 325 322 326 335 332 330 331 334 336 336 335 334 333 332 334 324 330 333 333 331 330 327 324 316
319 320 319 319 318 315 314 315 316 316 317 321 320 320 322 323 323 324 326 327 330 328 333 336 337 338 338 336 333 335 334 333 332 331 331 332 334 331 333 322 329 328 323 317
317 317 317 316 316 316 316 316 316 315 315 315 315 315 317 320 322 326 328 327 331 332 331 330 334 335 336 333 333 332 332 330 329 328 328 329 330 331 330 332 330 328 325 320
316 316 316 318 316 315 316 315 315 316 315 315 315 316 316 319 321 326 330 330 333 320 328 334 334 330 333 330 332 331 330 330 329 328 328 328 330 331 331 331 331 328 324 320
317 318 318 318 315 315 315 315 315 316 315 315 314 314 315 317 322 324 327 333 330 324 329 332 325 322 321 331 330 328 328 328 328 328 328 328 328 330 331 331 329 327 322 319
318 319 318 317 316 315 315 316 316 316 316 316 315 316 316 315 319 328 331 323 316 320 328 325 324 319 320 330 327 325 324 323 321 320 320 308 326 330 332 331 326 327 321 314
318 317 317 315 314 313 314 315 314 316 317 317 317 317 317 315 319 327 332 329 317 321 328 317 317 317 326 326 325 323 321 318 318 317 317 319 322 326 328 328 324 321 319 319
312 311 311 312 312 313 313 314 315 316 316 314 315 316 316 317 319 325 330 323 326 321 326 324 322 323 323 322 322 320 318 316 314 317 315 320 322 323 323 324 323 319 318 319
308 305 309 307 309 310 312 313 314 315 314 314 313 315 316 316 319 320 320 328 329 326 325 324 321 317 320 321 319 318 317 317 311 320 321 321 321 322 322 322 321 321 320 316
Wind_Speed
1 1 4 3 2 4 2 5 6 3 6 6 12 11 8 10 13 8 2 3 3 3 4 4 7 7 8 11 9 11 11 11 14 13 10 9 10 12 12 11 11 10 9 6
1 5 1 3 1 5 2 1 3 5 3 6 6 4 12 13 14 10 13 10 8 2 4 5 6 7 6 7 8 10 11 15 13 9 9 11 11 12 11 11 10 9 8 9
3 3 4 3 3 2 2 0 3 0 1 5 7 11 8 5 10 10 8 9 8 6 6 4 3 7 10 8 8 10 11 10 8 8 11 11 10 11 12 13 9 10 9 11
3 3 3 5 3 3 4 3 1 3 4 3 3 3 6 11 11 14 13 9 7 6 7 6 3 5 3 6 7 9 10 9 8 9 10 9 11 12 12 11 12 10 10 10
4 4 4 3 1 2 1 4 5 4 2 2 3 2 6 12 17 13 20 8 6 5 6 7 10 7 8 5 1 2 4 5 5 8 9 10 13 14 12 11 9 9 9 12
2 4 7 3 1 2 2 6 5 3 3 2 3 3 4 3 12 22 11 11 9 10 8 11 9 7 10 10 7 6 4 5 5 7 10 12 11 10 7 6 5 7 9 9
1 1 4 3 3 2 3 6 1 3 6 6 4 3 4 5 6 9 17 11 12 5 9 8 8 9 10 7 7 4 4 5 3 3 3 2 3 2 5 8 9 10 10 6
2 2 4 3 1 4 4 2 1 3 4 5 6 8 2 7 5 4 4 10 10 5 5 4 4 7 7 6 4 5 7 6 5 2 3 5 7 6 4 7 8 9 9 6
7 6 3 3 4 3 3 3 2 3 4 4 6 7 6 5 9 8 10 7 14 1 4 3 3 3 8 1 2 4 6 7 4 3 4 4 6 8 6 5 6 7 6 5
3 3 5 5 5 5 2 4 4 3 5 5 6 7 10 7 6 6 5 3 2 6 3 3 1 1 2 4 5 3 5 7 4 4 4 4 4 4 5 4 4 3 3 4
5 8 7 6 6 5 2 3 4 4 4 6 5 11 8 10 9 7 5 5 3 4 5 5 2 0 2 2 6 3 5 5 4 4 4 5 5 4 3 3 2 3 3 3
6 4 2 5 5 2 3 4 6 3 6 6 5 10 7 8 8 7 8 2 5 6 5 9 3 4 2 2 4 2 6 4 3 3 3 3 3 3 9 5 2 4 6 6
3 3 5 8 7 4 4 5 6 5 5 7 8 5 5 5 6 7 7 5 6 7 6 5 3 2 4 1 2 4 4 4 3 3 3 3 2 3 3 4 8 6 3 5
6 2 5 3 4 7 4 5 3 3 3 4 7 7 7 6 6 7 8 8 3 5 4 4 3 3 3 4 4 4 4 6 4 3 3 3 4 5 3 3 2 2 8 3
8 9 7 2 6 6 1 3 6 6 5 7 5 4 5 8 8 7 6 8 4 4 5 5 4 5 4 5 4 4 4 4 4 3 2 4 4 3 4 3 3 3 3 4
5 7 5 6 6 6 3 6 6 7 6 6 7 9 8 7 6 5 6 4 2 4 4 5 5 4 5 5 5 3 4 8 5 3 2 2 3 5 4 4 4 4 4 4
4 2 5 3 4 2 4 4 2 3 4 5 6 7 7 8 7 8 7 6 6 4 2 5 5 2 1 3 4 4 3 2 5 1 3 5 5 5 5 5 4 4 4 6
2 2 3 6 6 5 3 3 5 5 4 5 5 6 7 8 6 7 8 6 5 5 3 5 4 2 2 4 5 3 2 2 2 4 3 4 4 3 4 4 4 5 3 4
6 7 7 7 6 6 4 4 4 3 4 4 5 6 5 4 4 5 7 5 4 5 5 3 5 9 8 7 4 2 3 4 3 2 2 1 2 3 4 4 5 5 5 5
7 7 8 7 6 5 4 3 4 6 6 6 5 6 6 4 4 5 5 5 5 5 6 6 4 1 2 3 6 4 5 4 3 2 2 2 2 3 3 5 4 6 6 6
8 8 7 6 5 4 4 2 3 5 6 5 6 7 7 8 6 5 5 5 5 6 7 7 3 1 1 2 4 2 3 3 3 3 3 3 3 4 4 4 4 5 6 7
4 5 6 3 3 3 3 3 3 3 5 7 6 5 6 6 5 6 4 5 5 8 4 3 3 3 1 6 3 3 3 3 2 3 4 3 4 4 4 4 5 4 6 6
3 2 1 1 2 3 5 3 3 4 5 5 6 7 5 5 4 3 4 2 4 5 3 2 2 2 5 3 2 2 3 3 3 3 3 3 4 4 4 4 4 5 6 7
2 2 2 3 3 3 6 4 5 5 5 6 6 5 4 4 5 3 4 7 8 4 3 3 3 5 6 2 3 2 2 2 2 2 3 4 5 4 5 4 4 6 6 7
3 2 1 2 3 4 6 5 5 5 5 6 7 5 4 4 5 4 4 4 5 4 3 2 2 5 2 2 2 3 3 2 2 2 4 5 5 5 4 3 5 6 7 6
1 3 3 5 5 4 4 3 3 5 3 5 5 4 5 3 4 4 4 5 4 4 3 2 2 3 3 3 3 3 2 2 2 3 4 4 5 4 4 3 5 7 8 8
4 5 3 4 3 4 4 4 3 5 4 4 5 7 5 4 4 5 5 4 4 4 4 4 4 5 4 4 4 3 2 2 2 3 3 3 3 3 3 5 6 7 7 9
Wind_Direction
348 177 114 134 77 358 111 161 168 216 289 334 330 322 342 1 18 33 20 101 196 188 205 199 181 181 185 195 183 181 189 198 215 215 206 192 187 192 200 202 203 201 196 124
342 298 308 119 174 105 16 279 235 288 279 341 321 355 31 26 24 14 64 50 43 6 213 218 194 208 193 196 195 180 195 209 213 203 193 194 192 198 196 206 197 185 168 137
205 0 355 349 251 126 124 31 275 27 322 325 353 29 349 67 40 20 20 53 47 55 56 60 247 223 216 194 168 188 205 218 202 196 201 198 194 195 203 206 186 188 154 146
183 78 217 258 351 106 130 205 252 293 317 222 255 280 334 349 49 17 328 53 49 57 49 32 19 23 260 178 182 190 207 205 192 189 197 183 187 200 207 202 195 186 162 158
150 174 279 296 224 20 84 266 184 235 320 301 277 10 357 7 9 15 281 347 2 13 61 60 31 14 58 38 89 198 262 249 213 186 184 183 198 205 206 203 185 177 170 158
127 148 196 253 51 66 164 301 164 195 256 273 238 174 211 181 162 219 28 344 339 340 33 47 29 36 61 65 47 22 324 240 201 189 190 200 209 204 194 179 136 124 143 163
90 157 291 244 267 197 134 241 226 209 223 266 258 131 269 294 263 348 45 335 303 22 33 20 22 47 46 48 64 44 33 46 97 124 168 108 114 122 120 128 130 132 133 151
79 90 266 193 163 181 227 328 316 305 262 269 275 302 164 272 338 317 173 290 251 31 11 27 44 74 42 27 9 56 71 72 65 78 107 115 114 91 112 120 136 130 147 169
174 219 247 272 247 269 173 228 318 322 330 303 296 297 296 203 223 237 259 258 277 167 228 94 75 55 120 106 308 93 80 84 80 68 79 110 119 125 130 143 144 156 167 171
24 283 251 261 253 245 233 231 265 277 294 288 287 296 295 280 258 221 233 279 287 238 258 74 130 90 136 139 145 87 96 99 98 105 95 89 90 103 109 105 96 118 162 181
268 283 289 273 250 270 246 216 271 293 247 278 298 302 276 297 296 286 257 218 210 302 334 296 27 73 294 148 101 142 111 100 120 109 90 83 54 49 82 78 122 172 180 168
225 248 214 270 328 273 185 198 217 317 301 305 310 293 292 291 285 281 290 217 245 253 247 259 200 207 146 75 118 190 112 122 118 112 111 111 134 110 45 25 244 138 171 174
219 226 213 262 266 249 277 259 256 255 261 287 282 269 315 281 272 282 285 266 232 245 249 270 248 303 4 30 189 187 135 136 147 141 145 164 149 150 149 53 59 55 175 181
219 214 290 234 280 315 272 277 251 241 265 274 290 301 277 273 295 302 294 284 225 230 224 190 183 223 234 226 182 186 164 178 153 194 182 200 198 165 166 161 182 153 51 32
205 199 222 286 324 332 276 33 36 16 353 346 329 300 323 315 296 279 282 275 239 185 199 174 192 228 204 213 207 187 193 200 187 219 195 191 192 218 161 167 187 145 114 67
144 193 206 230 268 286 38 46 44 357 352 335 343 350 334 316 315 319 330 315 200 208 207 186 219 226 205 194 212 214 224 224 199 164 199 200 198 199 188 174 185 176 166 167
121 141 196 201 184 155 66 66 63 348 338 353 334 333 353 359 3 3 351 360 335 319 234 222 244 301 247 226 208 235 234 201 155 129 215 205 203 215 188 178 190 183 180 170
237 50 151 137 144 120 108 56 33 16 356 326 343 4 11 23 350 331 335 321 329 342 291 269 234 243 228 220 219 215 233 226 173 205 219 198 200 168 191 196 199 191 166 162
194 165 137 123 121 105 72 41 23 358 12 39 28 360 339 347 337 311 323 333 306 302 277 297 239 209 221 222 188 165 181 174 171 187 193 183 145 182 205 205 207 187 174 152
113 112 115 103 95 86 82 28 15 27 2 5 2 2 342 326 332 318 317 302 257 244 298 297 311 268 233 169 155 169 159 148 156 168 182 192 206 177 197 209 195 189 167 155
80 78 78 96 121 112 83 35 28 24 346 0 0 340 321 310 317 320 339 337 315 345 331 326 318 293 95 143 143 125 127 145 172 195 205 220 222 212 202 203 199 185 168 151
78 97 108 104 66 39 29 10 20 349 347 347 342 341 338 337 332 315 269 241 293 329 315 312 310 299 172 143 147 153 172 154 186 216 225 235 238 235 208 200 204 160 147 149
71 50 43 64 8 317 317 332 341 327 325 330 323 320 311 290 284 296 311 276 304 326 312 280 271 257 158 144 138 149 181 177 195 223 243 252 254 247 229 203 161 151 151 163
30 324 284 306 327 319 309 300 312 302 285 293 286 284 281 312 315 258 271 296 300 307 344 337 290 176 160 160 154 180 209 195 189 234 267 268 264 254 232 190 164 157 148 157
223 249 298 331 314 282 282 287 294 292 297 302 302 297 252 232 215 271 294 282 297 302 324 11 128 164 191 189 187 199 200 204 231 263 269 271 261 246 242 199 154 151 151 157
242 269 271 259 250 270 272 268 261 285 286 297 297 284 293 277 270 256 258 258 270 277 276 273 237 232 239 217 197 210 199 200 241 250 250 259 261 249 238 199 165 156 154 149
266 239 257 282 246 245 256 259 257 270 254 238 257 279 273 282 285 275 265 267 261 251 251 246 236 226 230 208 192 195 195 211 236 270 284 272 254 238 205 195 168 153 142 133